Weather History for EGOS - October, 2013

Change the Weather History Date:

Tuesday, October 1, 2013

  Actual Average Record
Temperature  
Mean Temperature 56 °F -  
Max Temperature 61 °F 54 °F 82 °F (2011)
Min Temperature 51 °F 43 °F 39 °F (1996)
Degree Days  
Heating Degree Days 9    
Growing Degree Days 6 (Base 50)    
Moisture  
Dew Point 50 °F    
Average Humidity 80    
Maximum Humidity 88    
Minimum Humidity 61    
Precipitation  
Precipitation 0.04 in - - ()
Sea Level Pressure  
Sea Level Pressure 29.77 in    
Wind  
Wind Speed 10 mph ()    
Max Wind Speed 16 mph    
Max Gust Speed -    
Visibility 4.3 miles    
Events Rain    
Averages and records for this station are not official NWS values.
T = Trace of Precipitation, MM = Missing Value Source: Averaged Metar Reports

Daily Weather History Graph

Daily Weather History Graph

Search for Another Location

Airport or City:

Trip Planner

Search our weather history database for the weather conditions in past years. The results will help you decide how hot, cold, wet, or windy it might be!

Date:

Astronomy

Oct. 01, 2013 Rise Set
Actual Time 7:12 AM BST 6:47 PM BST
Civil Twilight 6:37 AM BST 7:21 PM BST
Nautical Twilight 5:57 AM BST 8:01 PM BST
Astronomical Twilight 5:16 AM BST 8:42 PM BST
Moon 3:07 AM BST (10/1) 5:03 PM BST (10/1)
Length of Visible Light 12h 43m
Length of Day
11h 35m
Waning Crescent, 13% of the Moon is Illuminated
Oct 1
Waning Crescent
Oct 5
New
Oct 12
First Quarter
Oct 19
Full
Oct 27
Last Quarter

Hourly Weather History & Observations

Time (BST) Temp. Dew Point Humidity Pressure Visibility Wind Dir Wind Speed Gust Speed Precip Events Conditions
12:50 AM 53 °F 49 °F 80% 29.80 in 5 mi East 11.5 mph - - Rain Rain
12:50 AM 53.6 °F 48.2 °F 82% 29.77 in 5.0 mi East 11.5 mph - N/A   Haze
1:50 AM 51.8 °F 48.2 °F 88% 29.77 in 3.7 mi East 9.2 mph - N/A   Haze
2:50 AM 51.8 °F 48.2 °F 88% 29.77 in 3.1 mi ESE 5.8 mph - N/A   Haze
3:50 AM 52 °F 48 °F 80% 29.79 in 3 mi East 9.2 mph - -   Light Haze
3:50 AM 51.8 °F 48.2 °F 88% 29.77 in 3.1 mi East 9.2 mph - N/A   Haze
4:50 AM 51.8 °F 48.2 °F 88% 29.77 in 3.1 mi East 10.4 mph - N/A   Haze
5:50 AM 51.8 °F 48.2 °F 88% 29.77 in 3.1 mi East 11.5 mph - N/A   Haze
6:50 AM 52 °F 48 °F 82% 29.79 in 4 mi East 10.4 mph - -   Haze
6:50 AM 51.8 °F 48.2 °F 88% 29.77 in 3.7 mi East 10.4 mph - N/A   Haze
7:50 AM 51.8 °F 48.2 °F 88% 29.77 in 3.7 mi East 12.7 mph - N/A   Haze
8:50 AM 53.6 °F 48.2 °F 82% 29.77 in 4.3 mi East 12.7 mph - N/A   Haze
9:50 AM 54 °F 49 °F 78% 29.80 in 4 mi East 9.2 mph - -   Haze
9:50 AM 53.6 °F 50.0 °F 88% 29.77 in 4.3 mi East 9.2 mph - N/A   Haze
10:50 AM 55.4 °F 50.0 °F 82% 29.77 in 3.7 mi East 13.8 mph - N/A   Haze
11:50 AM 57.2 °F 50.0 °F 77% 29.77 in 5.0 mi ESE 16.1 mph - N/A   Haze
12:50 PM 58 °F 50 °F 68% 29.79 in 5 mi East 13.8 mph - -   Haze
12:50 PM 59.0 °F 50.0 °F 72% 29.77 in 5.0 mi East 13.8 mph - N/A   Haze
1:35 PM 59.0 °F 50.0 °F 72% 29.77 in 3.7 mi ESE 11.5 mph - N/A   Haze
1:50 PM 59.0 °F 51.8 °F 77% 29.77 in 3.7 mi ESE 12.7 mph - N/A Rain Light Rain
2:01 PM 57.2 °F 51.8 °F 82% 29.77 in 2.5 mi ESE 13.8 mph - N/A Rain Light Rain
2:38 PM 57.2 °F 53.6 °F 88% 29.77 in 2.2 mi East 10.4 mph - N/A   Light Drizzle
2:50 PM 57.2 °F 53.6 °F 88% 29.77 in 1.6 mi East 10.4 mph - N/A Rain Light Rain
3:06 PM 57.2 °F 53.6 °F 88% 29.77 in 2.5 mi East 8.1 mph - N/A   Light Drizzle
3:23 PM 57.2 °F 53.6 °F 88% 29.77 in 3.1 mi East 6.9 mph - N/A   Haze
3:50 PM 59 °F 54 °F 79% 29.77 in 5 mi East 9.2 mph - - Rain Light Drizzle
3:50 PM 59.0 °F 53.6 °F 82% 29.74 in 5.0 mi East 9.2 mph - N/A   Haze
4:50 PM 60.8 °F 53.6 °F 77% 29.74 in 5.0 mi ESE 9.2 mph - N/A   Haze
5:50 PM 60.8 °F 53.6 °F 77% 29.74 in 5.0 mi ESE 10.4 mph - N/A   Haze
6:50 PM 61 °F 52 °F 64% 29.76 in 6 mi ESE 12.7 mph - -   Partly Cloudy
6:50 PM 60.8 °F 51.8 °F 72% 29.74 in 6.2 mi ESE 12.7 mph - N/A   Overcast
7:50 PM 60.8 °F 50.0 °F 68% 29.77 in 6.2 mi East 10.4 mph - N/A   Overcast
8:50 PM 59.0 °F 50.0 °F 72% 29.77 in 6.2 mi East 12.7 mph - N/A   Overcast
9:50 PM 59 °F 49 °F 61% 29.79 in 8 mi ESE 10.4 mph - -   Mostly Cloudy
9:50 PM 59.0 °F 50.0 °F 72% 29.77 in 6.2 mi ESE 10.4 mph - N/A   Mostly Cloudy
10:50 PM 59.0 °F 50.0 °F 72% 29.77 in 5.0 mi East 12.7 mph - N/A   Haze
11:50 PM 57.2 °F 50.0 °F 77% 29.77 in 5.0 mi East 11.5 mph - N/A   Haze